Location: Newark
(40.3500°N, 15.2333°E)
Time: 21:07:35
(UTC+00:00)

Vanguard 2 - Pass Details

Date: 03 February 2020
Orbit: 552 x 2939 km, 32.9° (Epoch: 23 February)

Event Time Altitude Azimuth Distance (km) Brightness Sun altitude
Rises 03:24:05 0° 184° (S) 6,364 12.1 -31.3°
Reaches altitude 10° 03:31:03 10° 165° (SSE) 5,631 12.0 -30.0°
Maximum altitude 03:39:33 16° 135° (SE) 5,286 12.2 -28.3°
Drops below altitude 10° 03:48:01 10° 106° (ESE) 5,662 12.8 -26.7°
Sets 03:54:53 0° 88° (E) 6,425 13.6 -25.4°
